www.pogodaiklimat.ru

Погода и климат >> Архив погоды >> Таиланд >> Прачуап Хирихан


ПОГОДА в Прачуап Хирихан

  • Прогноз погоды в Прачуап Хирихан
  • Монитор погоды в Прачуап Хирихан

АРХИВ ПОГОДЫ в Прачуап Хирихан

Время (UTC), дата Ветер
(напр.,м/с)
 
Видим.   Явления Облачность Т
(С)
Тd
(С)
f
(%)
Тe
(С)
Тes
(С)
Комфортность P
(гПа)
Po
(гПа)
Тmin
(С)
Tmax
(С)
R
(мм)
R24
(мм)
S
(см)
21 16.07 штиль 0 10 км 8/5 600 м
[Sc Ac As Cs]
+26.1 +23.0 83 +35 +35 очень
душно
1006.8 1006.0
00 17.07 штиль 0 10 км 6/3 600 м
[Cu med, cong Ac As Cs]
+26.1 +23.3 85 +35 +36 очень
душно
1005.7 1004.9 +25.3
03 17.07 З 5 10 км 8/5 600 м
[Sc Ac As Cs]
+30.2 +23.7 68 +41 +44 опасность
перегрева
1007.4 1006.6
06 17.07 СЗ 6 10 км 10/5 600 м
[Sc Ac As]
+31.7 +22.7 59 +41 +43 опасность
перегрева
1006.1 1005.3
09 17.07 СЗ 3 10 км {дождь} 10/5 600 м
[Sc Ac As]
+29.0 +23.5 72 +39 +40 очень
душно
1003.4 1002.6 0.9
12 17.07 СЗ 6 10 км {дождь} 10/5 600 м
[Sc Ac As]
+27.9 +22.4 72 +37 +37 очень
душно
1005.0 1004.2 +32.6 0.9
15 17.07 штиль 0 10 км 10/5 600 м
[Sc Ac As]
+27.2 +22.9 77 +36 +36 очень
душно
1006.1 1005.3
18 17.07 ЮЗ 4 10 км 10/5 600 м
[Sc Ac As]
+26.7 +22.9 80 +36 +36 очень
душно
1005.8 1005.0
21 17.07 З 5 10 км 8/3 600 м
[Sc Ac As Cs]
+26.2 +21.4 75 +33 +33 очень
душно
1005.6 1004.8
00 18.07 штиль 0 12 км 9/6 600 м
[Cu Sc Ac As Cs]
+27.0 +23.3 80 +36 +37 очень
душно
1005.0 1004.2 +25.2
03 18.07 З 10 12 км 10/6 600 м
[Cu Sc Ac As Cs]
+31.1 +23.4 64 +42 +42 опасность
перегрева
1005.5 1004.7
06 18.07 штиль 0 12 км 10/6 600 м
[Cu Sc Ac As Cs]
+32.0 +22.5 57 +41 +47 опасность
перегрева
1007.2 1006.5
09 18.07 штиль 0 12 км 10/5 600 м
[Cu Sc Ac lent Cs]
+31.5 +22.4 59 +41 +44 опасность
перегрева
1005.4 1004.6
12 18.07 штиль 0 10 км 10/6 600 м
[Cu Sc Ac As Cs]
+31.2 +22.1 58 +40 +40 очень
душно
1007.1 1006.3 +33.5
15 18.07 штиль 0 10 км 10/6 600 м
[Cu Sc Ac As Cs]
+30.9 +21.9 59 +40 +40 очень
душно
1008.6 1007.8
18 18.07 штиль 0 10 км 10/6 600 м
[Cu Sc Ac As Cs]
+30.0 +21.9 62 +39 +39 очень
душно
1005.4 1004.6
21 18.07 штиль 0 10 км 10/6 600 м
[Cu Sc Ac As Cs]
+27.0 +23.0 79 +36 +36 очень
душно
1003.8 1003.0
00 19.07 З 2 10 км 8/5 600 м
[Sc Ac As Cs]
+26.8 +23.4 82 +36 +37 очень
душно
1005.7 1005.0 +26.1
03 19.07 С 8 10 км 8/5 600 м
[Sc Ac As Cs]
+32.0 +22.8 58 +42 +43 опасность
перегрева
1007.3 1006.6
06 19.07 З 10 10 км 8/5 600 м
[Sc Ac As Cs]
+34.2 +22.3 50 +43 +44 опасность
перегрева
1005.3 1004.5
09 19.07 СЗ 7 10 км 10/5 600 м
[Sc Ac As]
+29.0 +23.5 72 +39 +40 очень
душно
1005.3 1004.5
12 19.07 С 3 10 км в посл. час дождь 10/5 600 м
[Sc Ac As]
+28.2 +23.7 77 +39 +39 очень
душно
1005.8 1005.0 +35.2 0.3
15 19.07 штиль 0 10 км 10/5 600 м
[Sc Ac As]
+27.7 +23.0 76 +37 +37 очень
душно
1007.8 1007.0
18 19.07 С 5 10 км 8/5 600 м
[Sc Ac As Cs]
+27.0 +23.0 79 +36 +36 очень
душно
1006.9 1006.1
21 19.07 штиль 0 10 км 8/5 600 м
[Sc Ac As Cs]
+26.4 +22.9 81 +35 +35 очень
душно
1006.4 1005.6
00 20.07 СЗ 1 10 км 8/3 600 м
[Sc Ac As Cs]
+27.0 +22.6 77 +36 +36 очень
душно
1007.0 1006.3 +25.6
03 20.07 штиль 0 10 км 8/3 600 м
[Sc Ac As Cs]
+31.5 +24.7 67 +44 +53 опасность
перегрева
1008.6 1007.8
06 20.07 СЗ 3 10 км 10/5 600 м
[Sc Ac As]
+34.1 +21.8 49 +43 +45 опасность
перегрева
1007.6 1006.8
09 20.07 СЗ 5 10 км в посл. час дождь 8/5 600 м
[Sc Ac As Cs]
+28.5 +27.1 92 +45 +47 опасность
перегрева
1006.0 1005.2 5
12 20.07 С 3 6000 м слаб. дождь 10/5 600 м
[Sc Ac As]
+27.0 +24.4 86 +38 +38 очень
душно
1006.3 1005.5 +34.8 0.9
15 20.07 штиль 0 10 км {дождь} 10/5 600 м
[Sc Ac As]
+26.1 +23.9 88 +36 +36 очень
душно
1007.7 1006.9 0.1
18 20.07 штиль 0 10 км {дождь} 8/5 600 м
[Sc Ac As Cs]
+25.7 +23.9 90 +35 +35 очень
душно
1007.5 1006.7 6
21 20.07 штиль 0 10 км 8/5 600 м
[Sc Ac As Cs]
+25.1 +24.1 94 +35 +35 очень
душно
1007.4 1006.6
00 21.07 штиль 0 10 км 10/6 600 м
[Cu Sc Ac As Cs]
+26.0 +23.8 88 +36 +36 очень
душно
1008.2 1007.4 +24.9
03 21.07 штиль 0 10 км 10/6 600 м
[Cu Sc Ac As Cs]
+30.3 +25.3 75 +44 +48 опасность
перегрева
1009.1 1008.3
06 21.07 СЗ 8 12 км 10/6 600 м
[Cu Sc Ac As Cs]
+31.6 +25.9 72 +47 +48 опасность
перегрева
1007.9 1007.1
09 21.07 С 10 10 км 10/6 600 м
[Cu Sc Ac As Cs]
+29.6 +23.0 68 +40 +40 очень
душно
1007.1 1006.3
12 21.07 штиль 0 10 км 10/6 600 м
[Cu Sc Ac As Cs]
+29.2 +23.1 70 +39 +39 очень
душно
1006.8 1006.1 +33.2
15 21.07 штиль 0 10 км 10/6 600 м
[Cu Sc Ac As Cs]
+28.0 +23.2 75 +38 +38 очень
душно
1008.9 1008.1
18 21.07 штиль 0 10 км 10/6 600 м
[Cu Sc Ac As Cs]
+27.5 +23.1 77 +37 +37 очень
душно
1008.1 1007.4
21 21.07 штиль 0 10 км 10/6 600 м
[Cu Sc Ac As Cs]
+27.1 +23.0 78 +36 +36 очень
душно
1007.9 1007.1
00 22.07 штиль 0 10 км 8/5 600 м
[Sc Ac As Cs]
+27.5 +24.2 82 +38 +39 очень
душно
1008.6 1007.8 +26.6
03 22.07 С 4 10 км 8/5 600 м
[Sc Ac As Cs]
+31.7 +24.3 65 +44 +48 опасность
перегрева
1009.1 1008.4
06 22.07 ЮЗ 6 10 км 10/5 600 м
[Sc Ac As]
+31.2 +24.8 69 +44 +46 опасность
перегрева
1007.7 1006.9
09 22.07 З 7 10 км 8/5 600 м
[Sc Ac As Cs]
+31.2 +26.3 75 +47 +48 опасность
перегрева
1005.5 1004.8
12 22.07 штиль 0 10 км 6/3 600 м
[Cu med, cong Ac As Cs]
+30.2 +26.4 80 +46 +46 опасность
перегрева
1006.3 1005.5 +34.2
15 22.07 штиль 0 10 км 6/3 600 м
[Cu med, cong Ac As Cs]
+28.4 +24.2 78 +40 +40 очень
душно
1008.6 1007.8
18 22.07 штиль 0 10 км 6/3 600 м
[Cu med, cong Ac As Cs]
+27.5 +24.0 81 +38 +38 очень
душно
1009.2 1008.4
21 22.07 штиль 0 10 км 6/3 600 м
[Cu med, cong Ac As Cs]
+26.7 +23.5 83 +36 +36 очень
душно
1008.7 1008.0
00 23.07 штиль 0 10 км 6/3 600 м
[Cu med, cong Ac As Cs]
+26.7 +23.8 84 +37 +37 очень
душно
1009.1 1008.3 +26.7
03 23.07 СЗ 12 10 км 8/3 600 м
[Cu med, cong Ac As Cs]
+32.5 +21.9 54 +41 +41 опасность
перегрева
1009.5 1008.7
06 23.07 С 4 12 км 6/4 600 м
[Sc Ac As Cs]
+35.2 +21.2 44 +42 +50 опасность
перегрева
1007.2 1006.4
09 23.07 СЗ 7 10 км 6/3 600 м
[Cu med, cong Ac As Cs]
+35.2 +21.7 46 +43 +45 опасность
перегрева
1005.1 1004.4
12 23.07 С 5 10 км 4/3 600 м
[Cu med, cong Ac lent Cs]
+31.0 +23.8 66 +43 +43 опасность
перегрева
1006.2 1005.4 +35.5
15 23.07 СЗ 5 10 км 4/3 600 м
[Cu med, cong Cs]
+29.5 +24.0 72 +41 +41 опасность
перегрева
1008.7 1007.9
18 23.07 штиль 0 10 км 4/3 600 м
[Cu med, cong Cs]
+28.0 +23.9 78 +39 +39 очень
душно
1007.1 1006.3

 

Местоположение метеостанции Прачуап Хирихан (Таиланд): широта 11.82 долгота 99.82 высота над уровнем моря 5 м.

В архиве по умолчанию представлена погода в Прачуап Хирихан за последнюю неделю. Архивные данные за месяц целиком и за предыдущие месяцы, начиная с января 2011 года, Вы можете получить, выбрав интересующий диапазон дат из раскрывающегося списка и нажав кнопку "Ввод!".


*Определитесь, кто Вы:
робот инопланетянин человек

Внимание! Время в таблицах - всемирное. Для получения местного времени необходимо прибавить поправку, которая равна 7 ч.

Смотрите также архив погоды в соседних городах и на ближайших метеорологических станциях:

Погода в Нонг Флуб Агромете (Таиланд) (85 км)
Погода в Хуахине (Таиланд) (86 км)
Погода в Мьей (Мьянма) (149 км)
Погода в Пхетчабури (Таиланд) (150 км)
Погода в Саттахипе (Таиланд) (158 км)
Погода в Чумпхоне (Таиланд) (165 км)
Погода в Паттайе (Таиланд) (167 км)
Погода в Хуайпонг Агромете (Таиланд) (175 км)
Погода в Самутсонгкхраме (Таиланд) (178 км)
Погода в Сави Агромете (Таиланд) (183 км)

Пояснения к столбцам:

Ветер - указаны скорость ветра в м/с - средняя за 10 мин, порывы в срок и между сроками (в фигурных скобках) и направление, откуда дует ветер: С - северный, СВ - северо-восточный, В - восточный, ЮВ - юго-восточный, Ю - южный, ЮЗ - юго-западный, З - западный, СЗ - северо-западный.
Видимость - горизонтальная дальность видимости в метрах или километрах. При видимости от 1 до 10 км при отсутствии осадков обычно наблюдается дымка, при ухудшении видимости до 1 км и менее - туман. В сухую погоду видимость может ухудшаться дымом, пылью или мглою.
Явления - указаны атмосферные явления, наблюдавшиеся в срок или в последний час перед сроком; фигурными скобками обозначены явления, наблюдавшиеся между сроками (за 1-3 часа до срока); квадратными скобками обозначены град или гололедные отложения с указанием их диаметра в мм.
Облачность - указаны через наклонную черту общая и нижняя облачность в баллах и высота нижней границы облаков в метрах; квадратными скобками обозначены формы облаков: Ci - перистые, Cs - перисто-слоистые, Cc - перисто-кучевые, Ac - высококучевые, As - высокослоистые, Sc - слоисто-кучевые, Ns - слоисто-дождевые, Cu - кучевые, Cb - кучево-дождевые. Подробнее классификацию облаков см. в Атласе облаков (PDF).
T - Температура воздуха - температура, измеренная на высоте 2 м над землей.
Td - Температура точки росы - температура, при понижении до которой содержащийся в воздухе водяной пар достигнет насыщения.
f - Относительная влажность воздуха - влажноcть воздуха, измеренная на высоте 2 м над землей.
Te - Эффективная температура - температура, которую ощущает одетый по сезону человек в тени. Характеристика душности погоды. При расчете учитывается влияние влажности воздуха и скорости ветра на теплоощущения человека.
Tes - Эффективная температура на солнце - температура, которую ощущает человек, с поправкой на солнечный нагрев. Характеристика знойности погоды. Зависит от высоты солнца над горизонтом, облачности и скорости ветра. Ночью, в пасмурную погоду, а также при ветре 12 м/с и более поправка равна нулю.
P - Атмосферное давление - приведенное к уровню моря атмосферное давление.
Po - Атмосферное давление - измеренное на уровне метеостанции атмосферное давление.
Tmin - Минимальная температура - минимум температуры воздуха на высоте 2 м над землей.
Tmax - Максимальная температура - максимум температуры воздуха на высоте 2 м над землей.
R - Количество осадков - Количество выпавших осадков за период времени, мм. При наведении курсора мыши на число - период времени, за который выпало указанное количество осадков.
R24 - Количество осадков - Количество выпавших осадков за 24 часа, мм.
S - Снежный покров - Высота снежного покрова, см. При наведении курсора мыши на число - состояние снежного покрова и степень покрытия местности в баллах.